sat.trackr.live / text

‹ back to catalog

STARLINK-32494

NORAD 62053 · 2024-216X

PAYLOAD ACTIVE UNKNOWN

§ Identity

Operator
Country
US
Launch date
2024-11-21
Launch site
AFETR
Launch vehicle
Mass (kg)
RCS (m²)

Purposes: comms

External: N2YO · Heavens-Above · Gunter

§ Orbital elements

Epoch: 2026-05-24T20:41:33.832032Z

Period
94.27 min
Inclination
42.9984°
Eccentricity
0.0002898
Mean motion
15.27595061 rev/d
Perigee alt
481.0 km
Apogee alt
485.0 km
Semi-major
6,861.1 km
B*
6.1668e-4
RAAN
193.2030°
Arg perigee
270.3370°
Mean anomaly
89.7149°
Rev number
8,544

§ Raw data

STARLINK-324941 62053U 24216X   26144.86219713  .00016755  00000+0  61668-3 0  99982 62053  42.9984 193.2030 0002898 270.3370  89.7149 15.27595061 85441

JSON: /api/v1/satellites/62053 · /tle

For live sub-satellite position, see the globe view (requires WebGL).

§ Visibility from observer

Set your observer location to see the next 7 days of passes ≥ 10°. The values pass through the URL so the page stays shareable.

No JS? Fill the form by hand. The geolocation button needs JavaScript.